Theta_e
349 346 344 343 343 341 340 340 338 338 339 338 338 340 338 337 336 336 337 336 336 338 340 340 341 342 343 344 342 339 338 336 330 327 328 326 327 328 327 326 325 324 322
348 345 343 343 340 341 341 338 338 338 338 339 339 339 338 335 334 335 335 335 335 336 337 339 339 341 341 342 341 339 338 336 332 327 325 325 324 324 324 322 321 320 318
347 344 344 341 342 342 339 338 338 338 337 338 338 338 337 334 333 333 333 334 334 335 336 336 336 338 339 339 339 339 337 335 333 328 325 324 322 322 320 319 319 317 315
346 344 343 343 342 342 340 339 338 338 337 337 337 337 336 334 332 326 327 332 333 334 335 333 332 335 337 338 338 336 334 333 330 327 325 323 322 321 321 319 317 315 315
345 344 343 343 342 341 340 339 339 338 338 337 336 336 336 335 333 324 329 331 332 333 335 334 331 333 333 333 335 332 332 331 327 326 324 323 322 321 322 321 320 319 316
344 344 343 343 342 342 341 339 339 338 338 337 336 335 335 334 334 326 323 326 328 330 332 333 331 329 330 330 331 330 328 329 327 325 324 324 323 323 323 322 320 317 318
344 343 342 344 343 341 341 340 339 339 338 337 335 334 334 333 334 330 326 325 324 324 326 331 331 328 328 329 328 328 328 328 329 329 327 326 325 325 324 321 320 319 321
343 341 342 342 343 343 342 340 339 339 337 337 336 335 331 332 333 332 330 327 327 327 326 323 327 329 328 327 327 328 328 328 327 328 328 327 326 325 324 323 321 322 323
344 343 341 341 342 342 342 340 339 339 336 337 337 336 332 328 331 331 331 329 329 328 327 324 321 327 328 328 327 326 326 326 325 325 325 324 324 323 323 323 322 323 322
344 342 341 341 342 341 339 338 338 337 337 335 333 334 335 327 326 329 329 328 326 327 326 323 317 322 325 325 325 326 325 325 326 323 319 315 316 322 324 322 323 323 320
343 342 341 341 340 339 337 337 336 334 334 334 334 333 333 332 326 327 328 328 327 325 324 322 320 316 317 313 310 313 309 311 309 308 309 309 309 309 310 310 312 315 317
341 339 338 337 336 334 335 336 336 334 333 333 332 332 332 332 333 326 329 328 328 327 326 325 321 320 316 312 311 315 314 309 310 311 312 312 311 310 309 308 310 312 314
336 334 334 335 335 336 335 335 334 333 332 334 333 332 332 334 334 333 325 327 328 328 328 328 324 320 320 320 320 316 316 314 311 312 312 313 313 313 310 309 310 310 308
337 336 336 335 335 334 333 332 333 334 334 333 333 333 332 332 334 334 330 325 325 326 327 328 325 321 318 318 317 318 318 319 317 317 317 317 318 317 316 311 310 309 311
336 335 334 333 333 331 330 329 328 328 328 330 332 332 334 334 334 334 334 332 325 325 325 325 324 319 315 313 312 310 307 316 316 314 312 313 313 314 315 315 311 308 308
333 332 332 331 331 330 329 328 327 326 326 325 326 328 330 330 332 332 333 334 333 328 324 324 322 321 316 313 309 308 308 309 310 310 313 314 313 313 312 312 309 308 308
329 329 330 330 330 329 328 326 326 326 325 324 324 324 326 328 329 330 331 332 331 326 322 321 321 320 318 316 312 308 308 310 310 309 310 311 311 310 310 309 309 307 307
329 328 327 327 326 327 327 327 326 326 325 325 324 324 325 326 327 327 328 328 320 318 319 319 319 318 317 316 314 311 308 310 310 310 310 310 309 309 309 309 308 307 308
330 329 329 328 327 327 327 327 327 326 326 326 326 326 326 325 325 327 326 326 322 319 319 317 318 317 316 316 314 314 311 309 311 311 312 310 309 309 308 308 307 307 308
332 332 331 330 330 329 328 327 327 327 326 326 325 326 326 324 324 324 324 324 321 321 322 322 320 318 317 318 317 315 312 309 311 312 312 312 310 309 308 308 307 307 307
323 324 327 329 330 331 330 329 328 327 327 326 326 325 324 324 324 323 324 324 324 323 323 324 324 320 320 320 320 316 315 313 311 310 311 312 311 309 309 309 308 308 308
319 319 320 322 324 327 328 328 327 327 327 326 326 323 319 318 319 321 321 322 323 323 323 322 321 320 320 320 319 319 319 315 313 311 310 313 313 312 310 309 308 308 308
316 317 317 318 319 322 325 326 326 326 326 325 322 316 316 318 320 320 320 320 320 320 320 318 317 316 317 317 317 316 316 316 316 315 312 313 312 310 310 309 309 308 308
315 315 315 318 319 320 323 323 323 322 320 317 316 316 316 315 316 318 318 318 318 319 316 315 314 314 314 315 315 315 316 316 316 315 315 315 312 311 310 308 310 309 308
317 316 316 318 319 320 321 320 317 316 315 315 314 315 315 314 314 314 314 313 313 313 312 312 311 311 312 313 314 314 314 313 313 314 314 314 313 314 313 312 312 309 307
315 315 315 314 315 316 315 314 313 314 314 314 314 314 313 313 313 313 313 313 313 313 313 313 312 312 312 311 311 312 313 313 313 312 311 312 314 310 310 310 310 309 305
Wind_Speed
13 15 13 13 12 12 11 9 5 5 5 3 4 5 3 2 1 2 2 2 2 1 1 1 1 3 8 13 15 22 15 12 9 7 16 15 13 12 12 12 13 13 13
12 14 12 13 13 12 10 9 8 7 6 5 4 6 5 2 2 3 4 3 2 1 1 1 3 2 5 9 14 20 15 12 15 15 18 13 15 13 14 14 14 13 14
13 15 14 14 13 13 10 8 8 6 6 6 7 6 5 3 3 3 3 3 3 3 2 2 2 2 5 9 13 16 15 12 16 19 15 19 17 15 15 14 13 14 14
15 17 16 15 13 12 10 9 8 7 6 6 6 6 5 4 2 2 3 5 5 5 3 4 4 3 4 8 11 13 14 13 15 21 18 15 16 13 13 14 13 12 12
16 16 15 13 12 12 10 10 10 10 8 7 7 8 8 6 3 2 4 6 7 7 6 6 7 6 5 3 7 11 13 15 17 19 15 13 12 14 13 12 11 10 10
13 15 13 13 12 12 13 12 11 12 10 10 11 11 9 8 7 5 5 6 7 8 7 8 8 7 6 6 6 8 11 17 18 11 11 12 15 16 15 16 16 9 4
10 12 13 14 15 13 14 15 16 16 15 13 13 14 13 11 11 9 7 6 6 6 5 6 7 8 8 8 10 9 8 10 12 16 18 17 15 18 17 16 16 12 5
11 11 12 15 14 13 13 16 18 18 18 18 18 17 16 13 13 14 11 9 7 5 4 4 4 7 8 9 11 11 11 11 9 8 11 12 10 15 14 14 16 10 7
14 12 12 15 16 12 10 10 12 18 17 18 14 16 17 13 14 16 14 13 11 10 7 5 5 6 7 7 9 11 10 10 9 8 10 10 10 11 13 13 14 11 4
14 11 11 11 9 8 6 7 9 10 14 11 15 15 16 15 14 16 17 15 13 11 10 8 8 8 9 8 8 11 12 12 12 12 11 11 11 11 11 11 11 11 6
12 11 10 9 8 7 6 6 6 7 9 11 8 11 10 14 16 16 19 18 16 14 13 13 12 11 11 10 10 11 10 13 14 13 13 12 11 9 8 7 9 11 10
14 13 10 9 8 6 2 2 5 8 9 10 7 9 14 16 17 18 19 21 19 17 16 13 14 14 14 13 12 10 10 14 15 15 14 12 11 8 8 5 5 5 6
13 13 10 8 6 5 3 2 5 5 8 7 10 10 11 12 13 18 22 21 22 22 19 14 14 16 16 16 17 15 13 17 18 18 17 17 15 11 9 9 8 6 5
13 14 11 6 2 3 4 7 8 8 9 14 12 14 15 15 16 19 23 25 24 23 23 21 18 18 20 19 18 18 19 21 22 24 23 22 19 18 16 15 12 11 12
9 10 8 4 2 4 5 4 2 1 6 11 13 12 13 17 21 22 24 30 31 30 25 25 22 22 23 22 21 20 19 20 23 22 24 25 23 22 20 19 15 14 11
9 9 6 3 5 8 9 6 5 5 6 9 9 12 17 17 17 15 21 21 30 29 25 26 26 28 29 28 26 24 23 23 22 19 16 18 21 22 22 20 18 17 15
10 6 3 4 8 9 8 8 5 5 8 10 13 14 11 15 16 18 17 20 24 30 23 26 27 29 31 31 30 29 29 28 24 22 21 21 22 22 22 22 22 19 17
5 4 4 5 5 6 8 11 11 8 11 16 12 13 14 13 14 16 17 15 22 28 25 24 29 29 30 31 32 32 32 28 27 24 24 24 24 23 22 23 24 22 20
4 5 7 8 10 9 12 11 10 12 13 16 19 18 16 15 13 12 13 14 19 24 31 29 27 28 29 28 29 31 33 33 30 28 29 27 26 25 26 26 25 25 23
8 11 13 15 15 15 16 15 14 15 16 17 18 18 19 17 16 14 13 13 16 21 25 29 29 30 27 25 24 26 29 31 30 32 30 30 31 30 30 29 26 22 22
7 7 8 11 15 20 21 19 18 18 17 19 20 19 20 19 21 20 20 20 20 20 21 22 23 27 28 27 24 25 27 27 31 34 34 34 32 31 34 33 31 29 23
8 8 8 9 10 13 18 19 20 18 21 20 21 20 18 18 19 20 19 20 21 20 20 20 23 25 26 26 28 29 28 29 29 35 36 34 31 33 33 35 32 31 29
9 11 12 12 12 14 16 16 18 18 18 17 17 16 16 17 16 17 17 17 17 18 16 17 19 22 24 25 25 26 26 27 33 33 32 32 30 28 30 32 33 29 30
11 9 11 14 15 15 14 14 13 11 9 10 10 13 15 16 15 16 16 15 13 13 16 14 16 19 22 22 22 23 25 26 28 30 28 31 32 25 23 28 28 31 31
14 12 10 11 10 9 8 9 9 10 10 10 10 13 15 15 13 13 13 11 9 8 9 10 12 14 16 18 19 19 19 22 24 25 24 24 27 25 26 34 30 23 23
16 16 14 16 16 15 16 16 16 17 17 16 17 17 17 16 16 15 14 12 10 10 10 11 12 14 15 14 11 9 10 15 14 13 19 26 33 28 27 27 26 25 20
Wind_Direction
219 206 202 197 194 184 179 181 197 203 191 194 196 198 210 215 221 208 182 167 214 203 137 80 242 199 199 199 197 189 180 166 131 119 142 146 135 136 134 126 121 119 112
212 196 194 188 186 196 186 180 178 178 190 211 234 208 198 219 202 198 198 180 118 123 146 106 63 144 186 185 189 191 187 186 150 137 144 145 144 145 140 135 130 124 119
204 193 190 186 185 189 191 193 197 208 216 225 220 216 198 198 162 174 197 172 139 104 97 122 102 118 155 162 174 185 186 182 171 158 151 154 147 152 145 136 130 124 120
199 194 191 190 197 200 194 195 200 205 210 201 224 231 222 216 188 171 185 168 147 131 116 91 82 115 136 159 171 173 177 170 168 153 148 149 154 162 156 143 135 135 130
195 198 196 196 196 200 209 202 205 209 205 214 227 228 224 228 245 207 150 150 145 136 129 111 88 101 117 137 174 176 181 166 160 151 147 156 160 167 172 168 160 161 158
194 197 192 199 211 213 216 213 207 208 213 224 218 222 227 222 221 212 178 155 135 116 119 122 102 94 108 130 131 156 180 172 163 152 156 161 180 190 180 175 168 160 175
190 195 196 199 213 218 230 216 216 218 218 219 231 231 223 229 218 214 211 187 151 127 118 121 124 114 113 120 127 134 145 167 184 188 182 189 189 194 188 181 181 175 178
190 200 209 218 221 232 239 228 231 224 222 225 222 225 230 226 219 212 214 214 199 174 171 147 144 146 138 138 140 140 142 153 175 191 197 193 194 189 193 190 183 173 168
195 200 220 222 228 231 213 222 242 228 242 236 227 229 232 234 222 215 214 222 223 223 207 189 186 164 160 162 162 153 154 157 152 153 159 165 163 168 173 177 180 175 171
191 197 210 212 207 179 167 193 219 233 238 254 246 243 228 231 234 220 219 215 215 214 208 205 202 197 184 181 186 171 161 158 162 159 159 161 168 180 188 199 200 190 171
168 169 171 176 181 162 170 182 223 221 215 238 232 209 223 232 238 231 224 227 224 216 216 213 208 201 197 196 196 191 187 173 167 164 157 151 147 152 166 199 219 217 215
154 146 150 156 150 140 155 221 237 222 190 210 222 240 235 232 230 225 228 230 233 227 226 227 219 213 209 205 204 198 193 182 175 175 178 180 178 169 164 156 161 174 208
142 140 141 130 114 111 105 284 250 228 220 204 207 230 232 224 223 231 230 233 235 237 238 241 229 221 217 218 219 217 209 198 195 199 204 209 212 204 195 196 203 200 176
151 146 124 110 64 305 304 277 270 266 263 247 233 236 243 245 243 238 229 228 231 235 238 237 231 225 221 224 222 220 221 218 216 220 223 228 227 225 218 211 219 221 209
154 125 110 106 220 265 250 256 268 305 296 284 279 270 249 243 248 258 246 232 227 231 240 235 222 216 216 220 222 222 221 217 221 230 236 235 236 232 221 212 216 215 208
128 103 111 169 227 240 252 265 282 307 331 332 316 289 290 279 272 271 264 258 241 232 226 226 219 220 221 222 222 222 219 219 222 228 227 218 208 205 208 209 213 215 217
104 113 129 230 240 249 263 268 284 308 308 312 313 315 304 303 291 277 269 259 257 230 215 223 223 226 228 228 228 225 222 220 221 222 220 215 215 217 218 215 214 218 221
126 139 199 231 248 261 269 281 292 297 307 309 315 313 305 302 296 291 276 267 235 225 219 225 230 232 231 232 231 227 228 227 223 223 222 223 224 225 219 218 214 217 219
228 240 256 270 280 289 287 287 294 300 297 295 302 302 305 301 294 285 286 267 247 234 228 226 230 237 240 240 248 243 234 226 225 226 230 226 225 221 223 222 220 220 220
270 277 274 272 275 277 279 283 293 297 295 294 298 300 304 295 288 281 267 259 248 242 238 242 242 244 247 249 249 255 248 240 230 228 231 231 229 226 226 226 223 218 221
354 332 308 282 271 272 274 275 278 282 282 288 296 304 308 298 290 283 275 264 259 255 256 261 263 264 263 256 256 249 248 250 245 236 233 236 231 232 233 230 229 227 227
339 333 340 336 325 298 282 279 277 275 280 281 293 308 313 304 294 286 279 271 272 272 266 267 268 269 268 267 265 259 253 248 247 240 237 239 246 238 226 228 230 231 230
301 311 317 323 322 318 310 292 278 273 274 279 298 313 325 322 317 310 304 293 292 281 272 271 271 267 265 265 265 263 252 249 252 251 243 249 246 228 225 226 230 231 237
320 323 327 325 319 313 320 321 308 309 311 312 326 339 342 334 332 326 322 323 316 298 290 291 293 296 284 279 280 275 271 272 265 263 258 250 241 227 238 226 230 237 232
16 12 7 3 359 360 4 22 34 35 38 22 13 17 18 14 11 4 357 353 349 339 339 324 322 320 309 289 277 274 276 275 269 267 252 239 237 226 230 242 242 239 237
48 46 43 50 56 61 65 65 59 58 57 54 47 45 42 36 31 27 24 24 27 25 17 9 13 6 345 345 339 321 313 303 297 270 256 247 241 236 229 233 235 233 226